Вернуться в каталог

STARLINK-36429

АктивенСвязьVLEO
NORAD 67356·PAYLOAD·🇺🇸 United States

Запущен Jan 9, 2026 с Cape Canaveral Space Force Station

Loading…

Ближайшие Пролёты (ближайшие 24 часа)

TLE

СвежийSource: CelesTrak SupGP

Эпоха: Sep 14, 2026, 14:24 UTC

1 67356C 26003Y   26257.60048611 -.00027525  00000+0 -99711-3 0  2575
2 67356  43.0025 240.5031 0001485 274.8069  20.4438 15.27586870    13

Отслеживайте STARLINK-36429 в реальном времени с AllMySat

Download on the App Store